User: anonymous   Login
Location: Cronhütte
(48.9135°N, 9.6869°E)
Time: 07:42:13
(UTC+00:00)
Language:

Lacrosse 5 rocket - Orbit

View from above orbital plane
View from above orbital plane
View from above satellite
View from above satellite

Ground track
Ground track

The orbit data is extracted from the following two-line orbital elements,

1 28647U 05016B   24201.88449670  .00011915  00000-0  50460-3 0  9999
2 28647  56.9927 252.9859 0096041 337.1996  22.4796 15.19505003285481
Epoch (UTC): 19 July 2024 21:13:40
Eccentricity: 0.0096041
inclination: 56.9927°
perigee height: 441 km
apogee height: 573 km
right ascension of ascending node: 252.9859°
argument of perigee: 337.1996°
revolutions per day: 15.19505003
mean anomaly at epoch: 22.4796°
orbit number at epoch: 28548

The dashed part of the orbit path shows where the satellite is in the earth's shadow,  

DLR